CAPE
0 0 0 0 0 0 2 40 53 68 41 28 16 4 36 8 0 0 0 0 0 0 0 0 0 0 0 0 0 9 11 94 251 475 436 293 733 118 351 41 145 170 383 415
0 0 0 0 0 0 1 20 11 38 43 23 25 2 0 0 0 0 0 0 12 14 0 0 2 4 0 0 0 1 52 110 540 1062 942 595 435 171 485 350 374 256 264 463
0 0 0 0 0 3 5 1 4 40 60 57 23 2 3 19 0 0 0 0 7 64 25 0 0 22 2 0 0 0 110 421 671 699 711 943 719 754 787 220 245 393 262 310
0 0 0 0 0 0 14 0 0 10 31 64 33 18 15 5 0 0 0 0 16 83 55 4 2 44 6 0 0 0 173 409 561 581 436 816 965 711 824 733 276 349 450 437
0 0 0 0 0 0 0 2 10 17 16 22 15 9 39 19 9 8 4 4 85 112 66 17 0 44 0 0 0 13 182 232 595 453 351 1165 805 889 892 796 85 342 420 438
0 0 0 0 0 0 1 1 7 23 25 13 11 28 43 44 18 6 1 28 116 112 49 6 1 14 0 0 0 20 164 53 419 464 133 404 501 271 75 593 438 498 565 770
0 0 0 0 0 0 5 15 14 18 81 11 21 14 18 1 0 0 0 64 295 132 39 12 5 0 0 0 0 25 59 5 34 215 34 103 245 446 146 455 130 153 745 659
0 0 0 0 0 0 0 3 2 24 73 144 26 0 17 0 0 0 19 337 381 146 22 8 9 0 0 0 0 0 1 0 0 2 36 28 400 826 179 461 210 583 689 565
0 1 0 0 0 0 0 0 0 8 3 34 86 57 5 0 0 18 146 253 270 114 18 0 0 0 0 0 0 0 1 2 0 0 33 0 238 536 251 288 553 284 475 846
0 0 0 0 0 0 1 0 2 4 11 64 118 80 63 0 16 152 346 310 196 59 2 0 0 0 0 0 0 0 0 0 0 0 0 0 43 427 507 339 176 57 93 145
0 2 4 0 0 0 0 0 2 11 19 54 148 142 29 4 7 41 388 357 154 40 0 0 0 0 0 0 0 4 0 0 0 0 0 0 3 44 47 173 154 297 476 64
5 1 106 0 0 0 0 0 2 4 4 19 148 191 1 0 4 47 311 377 143 14 0 0 0 0 0 0 0 1 2 0 0 0 0 0 1 6 116 226 342 271 389 347
6 35 142 162 9 1 0 1 0 13 38 50 90 97 19 11 0 20 189 331 186 22 0 0 1 0 0 0 0 0 1 0 0 0 0 0 0 5 61 180 137 498 574 550
124 106 66 60 24 0 0 0 0 0 43 5 26 72 31 16 7 30 208 296 323 72 1 3 6 0 0 0 0 0 0 0 0 0 0 0 0 1 6 40 44 116 368 554
176 238 0 0 8 0 0 0 0 0 0 6 34 35 19 53 44 22 234 314 314 183 17 11 39 0 0 0 0 0 0 0 0 0 0 0 0 0 3 38 40 6 41 238
270 159 2 0 0 9 2 0 0 0 0 2 8 45 13 33 15 53 98 391 291 254 63 17 42 1 0 0 0 0 0 0 0 0 0 0 0 0 0 11 13 19 3 0
35 61 131 0 0 0 51 0 0 0 0 0 0 37 13 8 16 23 77 203 258 308 163 42 78 59 0 0 0 0 0 0 0 0 0 0 0 0 0 0 1 5 7 11
190 220 37 21 11 74 0 0 0 0 0 0 0 0 2 3 8 12 1 117 294 286 323 121 116 146 0 0 0 0 0 0 0 0 0 0 0 0 0 0 0 51 25 10
101 470 10 95 155 6 0 0 0 0 0 0 0 0 0 0 4 2 5 25 357 339 395 314 157 200 51 0 0 0 0 0 0 0 0 0 0 0 0 0 0 84 99 139
10 88 465 137 187 38 0 0 0 0 0 0 0 0 0 0 0 4 14 23 201 339 415 501 302 234 268 16 1 0 0 0 0 0 0 0 0 0 0 0 79 151 106 81
21 133 184 67 287 14 1 10 0 0 0 55 0 0 0 0 0 21 11 45 95 344 417 599 463 505 832 304 179 16 0 0 0 0 0 0 0 0 0 106 160 87 3 30
19 114 94 140 58 31 22 33 0 0 7 0 2 3 0 5 0 3 15 129 292 341 436 579 547 386 862 220 72 7 141 0 0 0 0 0 0 0 0 60 61 1 106 17
168 73 89 82 99 156 42 52 55 11 23 19 74 84 31 75 6 0 6 233 249 383 511 554 652 537 523 555 169 155 276 0 0 0 0 0 0 0 0 5 3 0 7 0
29 73 241 270 97 87 57 39 67 38 21 61 127 169 172 217 124 110 209 367 412 475 575 514 648 597 648 684 454 198 43 0 0 1 5 6 13 0 0 0 0 0 0 0
0 24 32 69 38 38 44 64 62 85 152 275 376 357 289 258 253 296 369 367 376 552 569 501 573 670 653 616 428 224 160 20 106 264 164 189 5 18 21 11 0 0 6 0
0 4 13 75 63 25 19 32 16 4 38 82 179 185 188 352 313 393 394 387 440 433 544 613 539 616 675 636 539 386 243 169 439 438 193 25 0 18 0 0 0 0 0 0
CIN
0 0 0 0 0 0 0 0 0 -1 -3 -1 0 0 -21 -34 0 0 0 0 0 0 0 0 0 0 0 0 0 -174 -171 -54 -5 0 0 0 0 -16 -1 0 0 0 0 0
0 0 0 0 0 0 0 0 0 -1 0 -1 0 -39 0 0 0 0 0 0 -75 -123 0 0 -278 -318 0 0 0 -47 -105 -60 0 0 0 0 0 0 0 0 0 -1 0 0
0 0 0 0 0 0 0 0 0 0 -1 -37 0 -31 0 -1 0 0 0 0 -41 -90 -183 0 0 -269 -122 0 0 0 -60 -6 0 0 -1 0 0 0 0 -2 0 0 -7 -5
0 0 0 0 0 0 0 0 0 0 0 -23 -1 -30 0 0 0 0 0 0 -82 -82 -139 -229 -306 -233 -215 0 0 0 -23 -7 0 -1 0 0 0 0 0 0 -1 -4 0 0
0 0 0 0 0 0 0 0 0 -1 0 0 0 -2 -22 0 -1 0 -1 -2 -35 -56 -131 -227 0 -226 0 0 0 -154 -20 -15 0 0 0 0 -2 0 0 0 -12 -4 0 0
0 0 0 0 0 0 0 0 0 0 0 0 0 -24 -6 0 -1 -1 -1 -12 -15 -65 -137 -244 -168 -234 0 0 0 -148 -26 -66 0 0 -1 0 0 -1 -22 0 0 0 0 0
0 0 0 0 0 0 0 0 0 0 -4 0 0 -15 -1 0 0 0 0 -6 -18 -79 -173 -234 -230 0 0 0 0 -148 -68 -51 -19 0 -14 -1 0 -3 -15 0 -5 -4 0 0
0 0 0 0 0 0 0 0 0 0 -3 0 -3 0 0 0 0 0 -20 -18 -31 -114 -174 -204 -222 0 0 0 0 0 0 0 -5 -3 -9 -8 -1 0 -6 -1 -20 -4 0 0
0 -4 0 0 0 0 0 0 0 0 -2 -2 -1 -1 -14 0 0 0 0 -31 -62 -124 -174 0 0 0 0 0 0 0 -1 0 0 0 -12 0 -1 0 0 -1 -4 0 -1 0
0 0 0 0 0 0 0 0 0 0 0 -7 0 0 -1 0 0 -6 -1 -28 -77 -116 -178 0 0 0 0 0 0 0 0 0 0 0 0 0 -1 -4 -1 -5 -43 -67 -35 -22
0 -26 -8 0 0 0 0 0 0 0 0 -2 0 0 -1 0 -3 -1 0 -16 -64 -95 0 0 0 0 0 0 0 -229 0 0 0 0 0 0 0 -9 -17 -2 -23 -10 -7 -33
-27 -1 -4 0 0 0 0 0 0 0 0 0 0 -1 -7 0 0 -2 0 -2 -33 -80 0 0 0 0 0 0 0 -277 -149 0 0 0 0 0 0 0 -19 -1 -4 -29 -11 -12
-96 -14 -28 0 0 0 0 0 0 0 -24 -13 -1 -3 -1 -2 -1 -2 -2 0 -21 -64 0 -10 -60 0 0 0 0 0 -137 0 0 0 0 0 0 0 -2 -6 -17 0 -1 -1
-67 -22 -71 -30 -92 0 0 0 0 0 -54 -3 -23 -1 -19 -5 -4 -1 0 -1 -11 -48 -118 -104 -67 0 0 0 0 0 0 0 0 0 0 0 0 0 0 -13 -6 -13 -4 -1
-3 -13 0 0 -3 0 0 0 0 0 0 -9 -18 -11 -14 -1 0 0 -1 0 -10 -38 -108 -142 -122 0 0 0 0 0 0 0 0 0 0 0 0 0 0 -24 -29 -42 -3 0
0 -28 0 0 0 0 0 0 0 0 0 0 0 -19 -1 0 0 -1 -2 0 -6 -26 -64 -131 -115 -11 0 0 0 0 0 0 0 0 0 0 0 0 0 0 0 -65 0 0
-3 -46 0 0 0 0 0 0 0 0 0 0 0 -66 0 0 -1 0 -5 -1 -4 -13 -29 -101 -105 -149 0 0 0 0 0 0 0 0 0 0 0 0 0 0 0 0 0 -54
-2 -8 -23 -24 0 0 0 0 0 0 0 0 0 0 0 0 0 0 0 0 -6 -15 -18 -58 -95 -132 0 0 0 0 0 0 0 0 0 0 0 0 0 0 0 -106 -115 -13
0 0 -17 -1 0 0 0 0 0 0 0 0 0 0 0 0 0 -1 0 0 -1 -15 -7 -22 -64 -123 -202 0 0 0 0 0 0 0 0 0 0 0 0 0 0 -145 -119 -74
-20 -2 0 0 0 0 0 0 0 0 0 0 0 0 0 0 0 0 0 -17 -1 -9 -11 -13 -48 -104 -154 -139 -24 0 0 0 0 0 0 0 0 0 0 0 -203 -146 -155 -158
0 0 0 -2 0 0 0 0 0 0 0 -37 0 0 0 0 0 -1 0 -29 -1 -4 -13 -13 -42 -62 -102 -164 -214 -285 0 0 0 0 0 0 0 0 0 -255 -203 -224 -181 -60
-3 0 0 0 -1 0 -1 0 0 0 -50 0 -27 -36 0 -46 0 0 -1 -5 0 -10 -14 -23 -39 -69 -93 -207 -267 -350 -229 0 0 0 0 0 0 0 0 -311 -325 -44 -224 -275
0 -1 0 0 0 -3 0 -1 -2 -3 -23 -29 -23 -32 -23 -28 -37 0 -13 -6 -11 -16 -36 -31 -35 -60 -111 -143 -211 -221 -190 0 0 0 0 0 0 0 0 -135 -456 0 -33 0
-6 -5 0 0 -1 -1 -2 -2 -1 -10 -7 -7 -7 -10 -12 -17 -17 -4 -11 -14 -11 -17 -25 -35 -33 -69 -92 -126 -156 -176 -278 0 0 -51 -50 -371 -439 0 -31 -28 0 0 0 0
0 -6 -1 0 -1 -2 -1 -1 -2 0 -1 -2 -17 -13 -1 -17 -15 -13 -5 -15 -20 -8 -29 -36 -38 -55 -86 -124 -134 -155 -201 -289 -251 -215 -265 -283 -240 -426 -327 -286 0 0 -83 0
0 0 -15 0 -1 -2 -2 -1 -3 -1 0 -12 -26 -16 -17 -13 -7 -14 -12 -18 -29 -15 -19 -35 -36 -51 -54 -96 -108 -144 -158 -194 -171 -186 -255 -193 -32 -365 0 0 0 0 0 0
Wind_Speed
24 19 26 33 28 25 23 18 17 11 8 13 13 17 19 15 15 17 15 11 11 13 13 14 12 9 7 5 4 3 3 4 6 6 7 4 3 4 2 3 6 8 7 6
22 27 28 28 27 26 23 21 15 14 12 9 13 19 20 19 18 15 14 9 11 12 14 14 13 11 8 5 3 3 1 4 5 5 5 5 4 3 5 4 4 3 7 4
31 26 28 27 27 25 23 21 17 18 12 9 14 23 20 7 10 10 8 8 9 13 15 15 14 12 9 7 5 3 2 2 4 4 2 2 3 0 2 4 6 4 1 4
29 27 27 30 27 25 22 19 18 14 13 13 14 14 15 17 6 10 12 13 10 12 15 15 14 13 10 8 6 5 3 1 3 7 4 4 3 3 3 4 2 5 5 4
29 26 28 27 29 26 20 18 17 14 15 18 18 12 14 10 10 6 5 3 10 13 16 16 15 13 11 8 8 5 4 3 2 4 7 6 6 5 2 3 4 8 4 3
31 28 25 27 27 19 19 17 17 11 11 16 19 15 15 10 3 2 5 4 8 12 15 16 15 13 11 9 8 6 5 3 1 4 6 6 7 7 4 5 3 5 4 5
28 33 27 22 20 22 23 14 12 13 14 14 18 13 9 13 3 3 5 6 9 11 15 16 16 14 12 11 10 8 6 5 2 4 5 6 6 7 7 4 6 4 4 6
23 29 30 23 25 23 21 19 13 15 14 14 11 7 3 4 5 3 2 4 8 13 15 16 16 13 13 12 10 7 7 6 4 4 5 6 10 7 6 7 3 4 6 7
24 28 26 26 22 25 19 22 20 22 19 14 6 8 10 7 8 8 2 2 9 14 16 16 16 13 12 12 10 8 7 6 5 5 4 5 7 9 8 6 7 5 3 7
16 19 25 28 20 25 23 18 20 15 19 17 13 11 4 11 10 8 7 7 14 15 16 15 15 13 12 12 10 9 7 7 6 5 4 5 5 8 7 5 5 4 6 9
30 18 23 26 26 26 21 22 17 16 14 13 11 8 8 6 5 2 9 12 15 16 16 16 15 13 13 12 12 10 8 8 7 6 5 5 6 7 6 6 7 5 8 8
32 14 18 28 24 25 25 26 22 11 18 12 13 2 11 7 5 7 4 12 16 16 16 16 15 15 14 13 12 11 9 9 8 7 7 6 5 7 6 7 8 7 6 9
27 18 18 23 21 25 27 24 23 19 14 15 12 13 13 13 7 5 6 11 16 17 17 16 15 15 15 14 13 12 10 9 9 9 8 7 6 7 7 6 9 7 9 8
23 20 26 20 25 21 26 25 25 23 17 16 16 16 14 11 11 11 8 9 14 17 18 16 15 15 15 14 13 13 11 10 9 9 10 8 8 7 8 7 10 7 9 11
27 26 26 26 21 25 22 27 27 28 23 21 17 18 15 11 13 11 12 10 13 17 20 18 16 15 15 15 14 13 12 11 10 10 10 9 9 8 8 8 7 9 8 9
22 24 23 26 25 24 27 26 26 27 25 23 21 17 11 8 9 13 11 13 12 16 20 19 18 17 17 17 15 14 13 13 12 10 11 11 10 10 9 8 7 8 8 9
23 19 24 22 24 26 24 27 27 24 22 21 21 20 18 12 13 12 11 12 12 15 18 21 20 18 16 17 15 15 14 14 13 12 12 12 12 11 11 10 10 9 8 7
22 22 18 20 23 28 19 22 22 24 21 21 19 19 18 17 15 12 14 14 13 14 18 20 18 17 17 17 17 15 15 15 14 13 13 12 13 12 12 11 10 9 8 8
20 19 15 16 19 16 25 17 23 22 21 21 21 19 18 15 15 16 15 14 16 14 15 17 19 18 17 18 18 17 16 16 15 15 13 13 13 13 13 12 11 10 9 9
13 12 14 14 18 25 18 22 14 18 22 21 21 19 17 16 15 11 15 14 13 14 13 15 19 20 18 18 18 18 17 17 16 16 15 14 13 14 14 12 11 10 9 9
17 17 20 15 14 16 16 15 14 21 13 20 21 21 19 16 14 10 10 17 15 14 15 15 18 19 18 18 18 19 18 18 16 15 15 14 13 13 12 11 10 10 10 9
20 19 16 17 16 18 19 13 24 7 1 15 15 17 17 18 17 13 9 5 14 15 15 16 16 18 18 19 18 19 18 18 17 16 16 15 14 11 11 12 11 11 9 8
22 18 14 16 13 5 11 14 10 9 8 6 7 10 11 15 16 15 13 9 10 15 14 16 16 18 18 20 19 19 17 19 18 16 16 16 15 13 13 13 12 11 10 9
17 12 17 14 17 12 6 10 9 11 11 11 9 7 7 13 14 12 14 11 12 16 15 14 17 18 19 19 20 18 18 19 19 17 15 14 15 14 13 11 11 11 11 11
12 18 15 17 13 16 13 9 9 9 8 2 2 9 9 8 9 14 13 12 12 14 14 13 15 17 19 19 20 20 19 19 17 16 15 14 14 13 12 12 12 12 11 11
15 13 12 10 13 6 6 12 10 10 9 11 9 12 8 10 12 12 12 12 13 15 15 14 14 15 18 19 20 20 21 20 17 15 14 14 14 14 13 12 11 5 1 13
Wind_Direction
204 211 208 212 219 229 247 258 253 242 245 250 277 277 285 283 270 270 252 243 230 208 200 185 187 184 182 205 228 253 335 343 321 334 338 17 356 338 59 285 269 253 265 242
204 221 214 217 222 231 241 252 255 262 259 268 291 283 290 282 276 267 249 240 218 197 193 177 183 188 187 188 194 205 318 3 332 5 352 354 334 32 17 1 9 12 210 192
217 214 220 212 224 222 228 243 244 261 271 241 270 266 256 254 269 244 234 255 213 193 190 180 183 187 183 190 178 152 91 23 19 352 71 32 333 320 20 29 25 38 94 176
219 223 209 225 217 223 228 227 247 269 276 267 274 283 294 272 263 256 232 198 207 179 182 180 183 184 186 177 165 153 122 17 82 6 15 10 18 20 51 40 35 18 49 83
218 219 217 212 223 219 232 235 239 227 252 270 263 262 272 266 218 249 248 257 152 168 178 178 182 177 176 166 165 168 143 107 54 40 6 28 36 21 31 75 33 59 68 90
229 213 223 220 215 217 225 226 255 266 260 256 256 253 265 271 122 306 303 176 155 169 170 171 174 170 168 176 163 168 150 123 263 18 41 21 60 53 29 47 34 76 45 48
211 228 211 225 213 212 220 208 227 227 231 248 246 237 288 300 315 334 331 323 143 161 168 168 172 171 167 173 166 171 166 138 158 66 49 24 16 81 67 73 76 56 69 41
209 211 214 201 211 210 204 212 226 219 233 246 138 225 261 216 61 264 291 352 135 167 165 169 172 171 173 171 172 186 168 156 163 88 61 45 35 65 77 91 120 70 55 54
202 216 202 202 201 221 186 214 225 255 285 289 213 208 196 190 211 197 160 171 153 164 163 171 169 172 174 171 173 175 161 152 161 121 99 72 70 77 93 96 60 65 81 86
209 211 218 196 204 218 221 199 217 228 247 262 243 234 243 166 210 117 149 164 159 163 165 171 170 172 175 174 168 178 174 166 163 138 136 105 93 109 105 94 109 91 78 60
231 212 200 186 196 205 202 224 203 246 225 238 249 261 116 148 155 331 146 158 169 170 171 172 172 171 177 174 172 179 186 160 164 153 133 134 105 101 102 92 75 64 108 98
214 215 228 199 199 209 214 210 206 217 221 251 276 242 111 159 204 181 193 154 172 178 174 173 173 172 176 178 169 176 183 172 172 161 146 136 129 112 101 95 97 102 87 115
203 211 219 197 201 201 223 210 217 219 245 235 220 236 181 165 195 191 237 152 171 181 176 174 176 177 180 179 178 172 179 178 171 167 149 144 143 122 109 94 96 115 117 97
200 211 212 215 198 191 207 222 204 217 217 229 243 261 153 173 196 212 184 164 180 184 177 178 183 180 183 180 183 176 179 169 172 171 159 151 148 138 134 140 122 129 120 127
191 219 207 228 204 199 204 214 216 212 219 224 227 233 246 214 190 215 178 179 179 188 181 185 186 184 185 179 184 183 176 166 174 175 157 162 155 155 150 142 134 120 125 120
188 214 215 217 229 203 203 210 222 223 222 223 233 244 225 195 243 193 202 166 194 191 191 190 188 186 186 181 186 180 179 167 174 177 161 168 168 165 153 146 142 140 129 128
185 209 211 219 213 227 222 206 212 221 223 225 225 229 245 232 208 230 202 176 201 194 197 194 190 188 186 182 186 178 179 172 176 182 164 167 174 169 165 163 154 146 137 137
193 202 200 213 221 217 226 220 218 219 222 220 229 236 229 233 232 205 229 195 199 201 195 196 189 188 184 182 183 178 180 178 181 187 174 169 174 174 171 171 160 151 151 148
207 195 209 213 206 216 219 220 224 214 223 215 218 220 235 243 222 228 211 215 183 207 195 196 190 186 181 183 181 178 184 183 185 188 182 176 176 173 176 176 163 166 166 164
213 215 224 204 211 208 208 200 212 223 225 215 214 223 227 222 228 221 195 213 199 192 199 188 187 179 181 184 179 183 187 187 190 189 185 180 177 174 178 177 170 173 176 176
197 208 213 220 213 225 206 180 176 216 216 207 215 222 220 223 233 236 207 207 207 188 200 182 182 182 178 183 180 188 189 192 192 189 183 178 176 173 176 170 170 176 188 176
198 200 206 211 200 220 195 202 181 192 159 175 192 213 213 223 226 234 225 195 180 191 190 174 180 184 177 186 185 193 191 190 192 190 182 176 171 181 170 173 177 182 191 182
206 208 204 214 207 205 195 191 158 186 192 194 182 198 207 212 219 218 213 200 206 191 180 184 180 181 180 190 192 197 190 189 192 191 183 174 170 188 167 177 178 184 187 191
250 260 215 206 205 144 159 183 161 212 236 215 188 222 203 224 218 195 198 196 193 184 182 185 182 182 186 193 197 200 190 191 190 190 182 176 174 184 171 181 183 193 185 198
241 245 265 212 221 197 177 165 197 204 222 254 221 262 210 195 201 198 179 200 200 190 179 186 190 189 190 193 199 199 194 191 192 185 181 181 182 183 175 194 184 198 185 202
241 240 258 227 193 237 185 200 231 256 240 236 245 249 232 205 195 189 189 193 200 197 189 189 192 201 194 191 197 200 199 190 190 186 184 185 186 177 189 193 189 178 292 189